| time (UTC) | temp F | wind direction | speed knots | gust knots | rain 1hr in | rain 24hr in | rain mn in | humidity % | barometer mb |
| 20260510190716 | 79 | 321 | 1.7 | 2.6 | 0.00 | 0.00 | 0.00 | 60 | 1011.4 |
| 20260510190213 | 79 | 330 | 5.2 | 7.0 | 0.00 | 0.00 | 0.00 | 60 | 1011.5 |
| 20260510185710 | 78 | 30 | 0.0 | 0.0 | 0.00 | 0.00 | 0.00 | 60 | 1011.5 |
| 20260510185209 | 79 | 312 | 3.5 | 3.5 | 0.00 | 0.00 | 0.00 | 63 | 1011.5 |
| 20260510184704 | 78 | 61 | 1.7 | 1.7 | 0.00 | 0.00 | 0.00 | 62 | 1011.4 |
| 20260510184201 | 78 | 28 | 1.7 | 2.6 | 0.00 | 0.00 | 0.00 | 62 | 1011.5 |
| 20260510183656 | 79 | 342 | 2.6 | 2.6 | 0.00 | 0.00 | 0.00 | 63 | 1011.4 |
| 20260510183151 | 78 | 39 | 1.7 | 1.7 | 0.00 | 0.00 | 0.00 | 61 | 1011.4 |
| 20260510182648 | 78 | 349 | 3.5 | 3.5 | 0.00 | 0.00 | 0.00 | 61 | 1011.3 |
| 20260510182143 | 78 | 245 | 0.0 | 0.9 | 0.00 | 0.00 | 0.00 | 64 | 1011.4 |
| 20260510181641 | 78 | 291 | 2.6 | 2.6 | 0.00 | 0.00 | 0.00 | 64 | 1011.5 |
| 20260510181137 | 78 | 8 | 5.2 | 7.0 | 0.00 | 0.00 | 0.00 | 59 | 1011.3 |
| 20260510180633 | 79 | 343 | 3.5 | 3.5 | 0.00 | 0.00 | 0.00 | 61 | 1011.3 |
| 20260510180131 | 78 | 273 | 0.9 | 1.7 | 0.00 | 0.00 | 0.00 | 59 | 1011.4 |
| 20260510175627 | 78 | 338 | 4.3 | 6.1 | 0.00 | 0.00 | 0.00 | 62 | 1011.2 |
| 20260510175122 | 77 | 262 | 0.9 | 0.9 | 0.00 | 0.00 | 0.00 | 58 | 1011.4 |
| 20260510174620 | 78 | 336 | 5.2 | 6.1 | 0.00 | 0.00 | 0.00 | 59 | 1011.4 |
| 20260510174118 | 78 | 19 | 2.6 | 2.6 | 0.00 | 0.00 | 0.00 | 61 | 1011.3 |
| 20260510173613 | 78 | 40 | 2.6 | 2.6 | 0.00 | 0.00 | 0.00 | 59 | 1011.4 |
| 20260510173110 | 78 | 17 | 3.5 | 5.2 | 0.00 | 0.00 | 0.00 | 58 | 1011.3 |
| 20260510172605 | 78 | 0 | 2.6 | 2.6 | 0.00 | 0.00 | 0.00 | 61 | 1011.6 |
| 20260510172102 | 77 | 267 | 2.6 | 5.2 | 0.00 | 0.00 | 0.00 | 61 | 1011.5 |
| 20260510171559 | 77 | 353 | 4.3 | 6.1 | 0.00 | 0.00 | 0.00 | 60 | 1011.6 |
| 20260510171056 | 77 | 42 | 2.6 | 2.6 | 0.00 | 0.00 | 0.00 | 62 | 1011.7 |
| 20260510170553 | 78 | 14 | 3.5 | 5.2 | 0.00 | 0.00 | 0.00 | 60 | 1011.8 |
| 20260510170049 | 77 | 358 | 3.5 | 3.5 | 0.00 | 0.00 | 0.00 | 65 | 1011.7 |
| 20260510165545 | 77 | 355 | 1.7 | 5.2 | 0.00 | 0.00 | 0.00 | 64 | 1011.9 |
| 20260510165041 | 77 | 4 | 3.5 | 3.5 | 0.00 | 0.00 | 0.00 | 65 | 1011.6 |
| 20260510164538 | 77 | 352 | 4.3 | 5.2 | 0.00 | 0.00 | 0.00 | 64 | 1012.0 |
| 20260510164034 | 77 | 331 | 3.5 | 6.1 | 0.00 | 0.00 | 0.00 | 62 | 1011.7 |
| 20260510163524 | 77 | 19 | 5.2 | 7.0 | 0.00 | 0.00 | 0.00 | 62 | 1011.8 |
| 20260510163020 | 77 | 284 | 2.6 | 3.5 | 0.00 | 0.00 | 0.00 | 62 | 1011.7 |
| 20260510162510 | 77 | 334 | 5.2 | 6.1 | 0.00 | 0.00 | 0.00 | 62 | 1011.8 |
| 20260510162007 | 77 | 18 | 1.7 | 2.6 | 0.00 | 0.00 | 0.00 | 64 | 1011.7 |
| 20260510161503 | 77 | 319 | 2.6 | 3.5 | 0.00 | 0.00 | 0.00 | 66 | 1011.8 |
| 20260510160959 | 77 | 318 | 3.5 | 3.5 | 0.00 | 0.00 | 0.00 | 60 | 1011.5 |
| 20260510160451 | 77 | 230 | 1.7 | 2.6 | 0.00 | 0.00 | 0.00 | 60 | 1011.7 |
| 20260510155948 | 78 | 332 | 3.5 | 3.5 | 0.00 | 0.00 | 0.00 | 59 | 1011.6 |
| 20260510155446 | 78 | 302 | 2.6 | 2.6 | 0.00 | 0.00 | 0.00 | 59 | 1011.8 |
| 20260510154943 | 78 | 6 | 3.5 | 3.5 | 0.00 | 0.00 | 0.00 | 57 | 1011.4 |
| 20260510154438 | 78 | 301 | 2.6 | 3.5 | 0.00 | 0.00 | 0.00 | 56 | 1011.6 |
| 20260510153932 | 77 | 335 | 2.6 | 3.5 | 0.00 | 0.00 | 0.00 | 59 | 1011.4 |
| 20260510153429 | 77 | 306 | 3.5 | 5.2 | 0.00 | 0.00 | 0.00 | 59 | 1011.4 |
| 20260510152925 | 78 | 274 | 4.3 | 6.1 | 0.00 | 0.00 | 0.00 | 58 | 1011.5 |
| 20260510152423 | 78 | 262 | 1.7 | 1.7 | 0.00 | 0.00 | 0.00 | 56 | 1011.3 |
| 20260510151920 | 78 | 304 | 0.0 | 0.9 | 0.00 | 0.00 | 0.00 | 60 | 1011.1 |
| 20260510151417 | 78 | 288 | 2.6 | 3.5 | 0.00 | 0.00 | 0.00 | 56 | 1011.2 |
| 20260510150913 | 78 | 269 | 0.9 | 1.7 | 0.00 | 0.00 | 0.00 | 58 | 1011.1 |
| 20260510150409 | 78 | 255 | 0.9 | 1.7 | 0.00 | 0.00 | 0.00 | 59 | 1010.9 |
| 20260510145904 | 77 | 249 | 0.9 | 0.9 | 0.00 | 0.00 | 0.00 | 59 | 1011.0 |
| 20260510145400 | 77 | 326 | 2.6 | 2.6 | 0.00 | 0.00 | 0.00 | 58 | 1011.0 |
| 20260510144857 | 78 | 11 | 0.9 | 1.7 | 0.00 | 0.00 | 0.00 | 58 | 1010.9 |
| 20260510144354 | 77 | 231 | 0.0 | 0.0 | 0.00 | 0.00 | 0.00 | 58 | 1010.7 |
| 20260510143849 | 76 | 260 | 0.9 | 1.7 | 0.00 | 0.00 | 0.00 | 57 | 1010.9 |
| 20260510143345 | 76 | 290 | 1.7 | 1.7 | 0.00 | 0.00 | 0.00 | 58 | 1011.0 |
| 20260510142843 | 76 | 308 | 1.7 | 1.7 | 0.00 | 0.00 | 0.00 | 56 | 1011.0 |
| 20260510142339 | 77 | 252 | 2.6 | 2.6 | 0.00 | 0.00 | 0.00 | 56 | 1010.8 |
| 20260510141836 | 77 | 245 | 1.7 | 2.6 | 0.00 | 0.00 | 0.00 | 57 | 1010.8 |
| 20260510141334 | 77 | 251 | 0.9 | 1.7 | 0.00 | 0.00 | 0.00 | 57 | 1010.8 |
| 20260510140831 | 76 | 276 | 1.7 | 1.7 | 0.00 | 0.00 | 0.00 | 59 | 1010.6 |
| 20260510140326 | 75 | 268 | 1.7 | 1.7 | 0.00 | 0.00 | 0.00 | 60 | 1010.6 |
| 20260510135820 | 75 | 210 | 1.7 | 2.6 | 0.00 | 0.00 | 0.00 | 64 | 1010.6 |
| 20260510135316 | 75 | 198 | 0.9 | 0.9 | 0.00 | 0.00 | 0.00 | 70 | 1010.6 |
| 20260510134814 | 74 | 169 | 0.9 | 0.9 | 0.00 | 0.00 | 0.00 | 71 | 1010.6 |
| 20260510134310 | 74 | 172 | 1.7 | 1.7 | 0.00 | 0.00 | 0.00 | 71 | 1010.6 |
| 20260510133806 | 73 | 202 | 0.9 | 0.9 | 0.00 | 0.00 | 0.00 | 73 | 1010.3 |
| 20260510133302 | 73 | 200 | 0.9 | 0.9 | 0.00 | 0.00 | 0.00 | 73 | 1010.4 |
| 20260510132758 | 72 | 198 | 0.0 | 0.0 | 0.00 | 0.00 | 0.00 | 77 | 1010.5 |
| 20260510132256 | 72 | 200 | 0.0 | 0.0 | 0.00 | 0.00 | 0.00 | 73 | 1010.7 |
| 20260510131753 | 71 | 191 | 0.0 | 0.0 | 0.00 | 0.00 | 0.00 | 74 | 1010.7 |
| 20260510131251 | 69 | 184 | 0.0 | 0.0 | 0.00 | 0.00 | 0.00 | 78 | 1010.6 |
| 20260510130747 | 68 | 182 | 0.0 | 0.9 | 0.00 | 0.00 | 0.00 | 79 | 1010.6 |
| 20260510130243 | 68 | 200 | 0.9 | 0.9 | 0.00 | 0.00 | 0.00 | 79 | 1010.7 |
| 20260510125734 | 66 | 208 | 0.0 | 0.0 | 0.00 | 0.00 | 0.00 | 84 | 1010.6 |
| 20260510125230 | 65 | 99 | 0.9 | 1.7 | 0.00 | 0.00 | 0.00 | 86 | 1010.4 |
| 20260510124727 | 64 | 165 | 0.9 | 0.9 | 0.00 | 0.00 | 0.00 | 84 | 1010.6 |
| 20260510124225 | 64 | 236 | 0.0 | 0.0 | 0.00 | 0.00 | 0.00 | 83 | 1010.9 |
| 20260510123720 | 63 | 236 | 0.0 | 0.0 | 0.00 | 0.00 | 0.00 | 84 | 1010.7 |
| 20260510123216 | 63 | 211 | 0.0 | 0.0 | 0.00 | 0.00 | 0.00 | 84 | 1010.5 |
| 20260510122712 | 63 | 211 | 0.0 | 0.9 | 0.00 | 0.00 | 0.00 | 83 | 1010.6 |
| 20260510122209 | 63 | 218 | 0.0 | 0.0 | 0.00 | 0.00 | 0.00 | 83 | 1010.3 |
| 20260510121705 | 61 | 219 | 0.0 | 0.0 | 0.00 | 0.00 | 0.00 | 86 | 1010.3 |
| 20260510121203 | 60 | 204 | 0.0 | 0.0 | 0.00 | 0.00 | 0.00 | 87 | 1010.4 |
| 20260510120659 | 60 | 199 | 0.9 | 0.9 | 0.00 | 0.00 | 0.00 | 88 | 1010.4 |
| 20260510120155 | 59 | 222 | 0.0 | 0.0 | 0.00 | 0.00 | 0.00 | 88 | 1010.5 |
| 20260510115646 | 59 | 222 | 0.0 | 0.9 | 0.00 | 0.00 | 0.00 | 88 | 1010.5 |
| 20260510115144 | 58 | 243 | 0.0 | 0.0 | 0.00 | 0.00 | 0.00 | 88 | 1010.6 |
| 20260510114640 | 59 | 219 | 0.0 | 0.0 | 0.00 | 0.00 | 0.00 | 90 | 1010.3 |
| 20260510114137 | 58 | 159 | 0.0 | 0.0 | 0.00 | 0.00 | 0.00 | 91 | 1010.1 |
| 20260510113631 | 57 | 159 | 0.0 | 0.0 | 0.00 | 0.00 | 0.00 | 92 | 1009.9 |
| 20260510113129 | 56 | 198 | 0.0 | 0.0 | 0.00 | 0.00 | 0.00 | 94 | 1010.0 |
| 20260510112626 | 55 | 202 | 0.9 | 0.9 | 0.00 | 0.00 | 0.00 | 94 | 1009.7 |
| 20260510112122 | 54 | 204 | 0.0 | 0.9 | 0.00 | 0.00 | 0.00 | 94 | 1009.4 |
| 20260510111618 | 54 | 213 | 0.9 | 1.7 | 0.00 | 0.00 | 0.00 | 94 | 1009.6 |
| 20260510111114 | 55 | 207 | 0.0 | 0.0 | 0.00 | 0.00 | 0.00 | 94 | 1009.6 |
| 20260510110610 | 54 | 170 | 0.0 | 0.0 | 0.00 | 0.00 | 0.00 | 94 | 1009.3 |
| 20260510110108 | 54 | 224 | 0.0 | 0.0 | 0.00 | 0.00 | 0.00 | 93 | 1009.5 |
| 20260510105603 | 54 | 304 | 0.0 | 0.0 | 0.00 | 0.00 | 0.00 | 93 | 1009.3 |
| 20260510105057 | 54 | 209 | 0.0 | 0.0 | 0.00 | 0.00 | 0.00 | 93 | 1009.2 |
| 20260510104555 | 55 | 210 | 0.0 | 0.0 | 0.00 | 0.00 | 0.00 | 92 | 1009.2 |
| 20260510104051 | 55 | 208 | 0.0 | 0.0 | 0.00 | 0.00 | 0.00 | 91 | 1009.2 |
| 20260510103548 | 55 | 197 | 0.0 | 0.0 | 0.00 | 0.00 | 0.00 | 92 | 1009.2 |
| 20260510103044 | 56 | 212 | 0.0 | 0.0 | 0.00 | 0.00 | 0.00 | 92 | 1009.2 |
| 20260510102540 | 56 | 202 | 0.0 | 0.0 | 0.00 | 0.00 | 0.00 | 91 | 1009.5 |
| 20260510102036 | 56 | 198 | 0.0 | 0.0 | 0.00 | 0.00 | 0.00 | 89 | 1009.3 |
| 20260510101534 | 57 | 214 | 0.0 | 0.0 | 0.00 | 0.00 | 0.00 | 88 | 1009.2 |
| 20260510101033 | 57 | 197 | 0.0 | 0.0 | 0.00 | 0.00 | 0.00 | 88 | 1009.2 |
| 20260510100528 | 58 | 324 | 0.0 | 0.0 | 0.00 | 0.00 | 0.00 | 87 | 1009.1 |
| 20260510100025 | 59 | 197 | 0.9 | 0.9 | 0.00 | 0.00 | 0.00 | 86 | 1009.1 |
| 20260510095521 | 59 | 239 | 0.0 | 0.9 | 0.00 | 0.00 | 0.00 | 80 | 1009.0 |
| 20260510095020 | 58 | 338 | 0.9 | 0.9 | 0.00 | 0.00 | 0.00 | 82 | 1009.2 |
| 20260510094515 | 58 | 299 | 0.9 | 0.9 | 0.00 | 0.00 | 0.00 | 81 | 1009.1 |
| 20260510094011 | 57 | 351 | 2.6 | 2.6 | 0.00 | 0.00 | 0.00 | 82 | 1008.8 |
| 20260510093507 | 58 | 271 | 0.9 | 0.9 | 0.00 | 0.00 | 0.00 | 81 | 1008.5 |
| 20260510093004 | 58 | 271 | 0.0 | 0.9 | 0.00 | 0.00 | 0.00 | 81 | 1008.5 |
| 20260510092501 | 58 | 271 | 0.0 | 0.0 | 0.00 | 0.00 | 0.00 | 81 | 1008.2 |
| 20260510092000 | 58 | 272 | 0.9 | 0.9 | 0.00 | 0.00 | 0.00 | 82 | 1008.3 |
| 20260510091457 | 57 | 272 | 0.9 | 0.9 | 0.00 | 0.00 | 0.00 | 87 | 1008.3 |
| 20260510090953 | 56 | 250 | 0.0 | 0.0 | 0.00 | 0.00 | 0.00 | 90 | 1007.9 |
| 20260510090451 | 56 | 249 | 0.0 | 0.0 | 0.00 | 0.00 | 0.00 | 92 | 1008.1 |
| 20260510085946 | 56 | 229 | 0.0 | 0.0 | 0.00 | 0.00 | 0.00 | 93 | 1008.1 |
| 20260510085441 | 57 | 229 | 0.0 | 0.0 | 0.00 | 0.00 | 0.00 | 94 | 1007.7 |
| 20260510084937 | 57 | 229 | 0.0 | 0.0 | 0.00 | 0.00 | 0.00 | 93 | 1007.9 |
| 20260510084435 | 57 | 229 | 0.0 | 0.0 | 0.00 | 0.00 | 0.00 | 93 | 1007.8 |
| 20260510083931 | 57 | 229 | 0.0 | 0.0 | 0.00 | 0.00 | 0.00 | 93 | 1007.7 |
| 20260510083428 | 57 | 229 | 0.0 | 0.0 | 0.00 | 0.00 | 0.00 | 92 | 1007.7 |
| 20260510082923 | 57 | 229 | 0.0 | 0.0 | 0.00 | 0.00 | 0.00 | 91 | 1007.9 |
| 20260510082421 | 58 | 229 | 0.0 | 0.0 | 0.00 | 0.00 | 0.00 | 91 | 1007.8 |
| 20260510081919 | 58 | 229 | 0.0 | 0.0 | 0.00 | 0.00 | 0.00 | 91 | 1007.9 |
| 20260510081416 | 58 | 229 | 0.0 | 0.0 | 0.00 | 0.00 | 0.00 | 89 | 1007.7 |
| 20260510080912 | 58 | 229 | 0.0 | 0.0 | 0.00 | 0.00 | 0.00 | 82 | 1007.6 |
| 20260510080411 | 59 | 229 | 0.0 | 0.0 | 0.00 | 0.00 | 0.00 | 82 | 1007.4 |
| 20260510075908 | 59 | 228 | 0.0 | 0.0 | 0.00 | 0.00 | 0.00 | 80 | 1007.6 |
| 20260510075406 | 59 | 258 | 0.0 | 0.0 | 0.00 | 0.00 | 0.00 | 79 | 1007.5 |
| 20260510074903 | 59 | 251 | 0.0 | 0.0 | 0.00 | 0.00 | 0.00 | 79 | 1007.3 |
| 20260510074400 | 58 | 242 | 0.0 | 0.0 | 0.00 | 0.00 | 0.00 | 83 | 1007.2 |
| 20260510073856 | 58 | 224 | 0.0 | 0.0 | 0.00 | 0.00 | 0.00 | 86 | 1007.0 |
| 20260510073352 | 59 | 225 | 0.0 | 0.0 | 0.00 | 0.00 | 0.00 | 86 | 1007.2 |
| 20260510072848 | 60 | 224 | 0.0 | 0.0 | 0.00 | 0.00 | 0.00 | 85 | 1007.3 |
| 20260510072345 | 60 | 224 | 0.0 | 0.0 | 0.00 | 0.00 | 0.00 | 83 | 1007.6 |
| 20260510071841 | 60 | 241 | 0.0 | 0.0 | 0.00 | 0.00 | 0.00 | 76 | 1007.7 |
| 20260510071337 | 59 | 244 | 0.0 | 0.0 | 0.00 | 0.00 | 0.00 | 77 | 1007.5 |
| 20260510070836 | 60 | 222 | 0.0 | 0.0 | 0.00 | 0.00 | 0.00 | 79 | 1007.7 |
| 20260510070333 | 61 | 222 | 0.0 | 0.0 | 0.00 | 0.00 | 0.00 | 80 | 1007.7 |
| 20260510065828 | 62 | 222 | 0.0 | 0.0 | 0.00 | 0.00 | 0.00 | 82 | 1007.7 |
| 20260510065325 | 62 | 221 | 0.0 | 0.9 | 0.00 | 0.00 | 0.00 | 79 | 1007.5 |
| 20260510064821 | 62 | 249 | 0.0 | 0.0 | 0.00 | 0.00 | 0.00 | 70 | 1008.0 |
| 20260510064320 | 62 | 250 | 0.0 | 0.0 | 0.00 | 0.00 | 0.00 | 71 | 1007.9 |
| 20260510063815 | 62 | 248 | 0.0 | 0.0 | 0.00 | 0.00 | 0.00 | 70 | 1007.9 |
| 20260510063311 | 61 | 244 | 0.0 | 0.0 | 0.00 | 0.00 | 0.00 | 71 | 1007.7 |
| 20260510062808 | 62 | 220 | 0.0 | 0.0 | 0.00 | 0.00 | 0.00 | 74 | 1007.5 |
| 20260510062306 | 62 | 220 | 0.0 | 0.0 | 0.00 | 0.00 | 0.00 | 71 | 1007.6 |
| 20260510061759 | 63 | 220 | 0.0 | 0.0 | 0.00 | 0.00 | 0.00 | 72 | 1007.6 |
| 20260510061257 | 64 | 244 | 0.0 | 0.0 | 0.00 | 0.00 | 0.00 | 64 | 1007.6 |
| 20260510060752 | 64 | 244 | 0.0 | 0.0 | 0.00 | 0.00 | 0.00 | 64 | 1007.5 |
| 20260510060250 | 64 | 248 | 0.9 | 0.9 | 0.00 | 0.00 | 0.00 | 64 | 1007.6 |
| 20260510055746 | 64 | 248 | 0.0 | 0.9 | 0.00 | 0.00 | 0.00 | 64 | 1007.6 |
| 20260510055245 | 64 | 243 | 0.0 | 0.0 | 0.00 | 0.00 | 0.00 | 66 | 1007.4 |
| 20260510054744 | 64 | 221 | 0.0 | 0.0 | 0.00 | 0.00 | 0.00 | 63 | 1007.3 |
| 20260510054241 | 65 | 240 | 0.0 | 0.0 | 0.00 | 0.00 | 0.00 | 61 | 1007.4 |
| 20260510053740 | 65 | 253 | 0.0 | 0.9 | 0.00 | 0.00 | 0.00 | 61 | 1007.4 |
| 20260510053237 | 65 | 248 | 0.0 | 0.0 | 0.00 | 0.00 | 0.00 | 60 | 1007.4 |
| 20260510052732 | 66 | 236 | 0.0 | 0.0 | 0.00 | 0.00 | 0.00 | 60 | 1007.3 |
| 20260510052229 | 66 | 253 | 0.9 | 0.9 | 0.00 | 0.00 | 0.00 | 58 | 1007.4 |
| 20260510051725 | 66 | 248 | 0.0 | 0.9 | 0.00 | 0.00 | 0.00 | 59 | 1007.3 |
| 20260510051221 | 66 | 237 | 0.0 | 0.0 | 0.00 | 0.00 | 0.00 | 59 | 1007.4 |
| 20260510050718 | 66 | 278 | 2.6 | 3.5 | 0.00 | 0.00 | 0.00 | 59 | 1007.2 |
| 20260510050216 | 66 | 207 | 2.6 | 3.5 | 0.00 | 0.00 | 0.00 | 60 | 1006.9 |
| 20260510045712 | 65 | 216 | 0.9 | 0.9 | 0.00 | 0.00 | 0.00 | 63 | 1007.0 |
| 20260510045209 | 65 | 189 | 0.9 | 0.9 | 0.00 | 0.00 | 0.00 | 65 | 1006.9 |
| 20260510044705 | 64 | 203 | 1.7 | 2.6 | 0.00 | 0.00 | 0.00 | 65 | 1006.9 |
| 20260510044203 | 62 | 199 | 0.9 | 0.9 | 0.00 | 0.00 | 0.00 | 70 | 1006.9 |
| 20260510043658 | 60 | 178 | 1.7 | 1.7 | 0.00 | 0.00 | 0.00 | 78 | 1006.9 |
| 20260510043155 | 59 | 201 | 0.0 | 0.0 | 0.00 | 0.00 | 0.00 | 85 | 1006.7 |
| 20260510042652 | 60 | 215 | 0.0 | 0.0 | 0.00 | 0.00 | 0.00 | 84 | 1006.9 |
| 20260510042148 | 60 | 214 | 0.0 | 0.0 | 0.00 | 0.00 | 0.00 | 82 | 1006.9 |
| 20260510041646 | 61 | 214 | 0.0 | 0.0 | 0.00 | 0.00 | 0.00 | 86 | 1007.0 |
| 20260510041143 | 61 | 215 | 0.0 | 0.0 | 0.00 | 0.00 | 0.00 | 78 | 1006.9 |
| 20260510040640 | 62 | 197 | 0.0 | 0.0 | 0.00 | 0.00 | 0.00 | 79 | 1006.7 |
| 20260510040136 | 62 | 197 | 0.0 | 0.0 | 0.00 | 0.00 | 0.00 | 77 | 1007.2 |
| 20260510035632 | 63 | 196 | 0.0 | 0.0 | 0.00 | 0.00 | 0.00 | 73 | 1006.9 |
| 20260510035127 | 64 | 218 | 0.0 | 0.0 | 0.00 | 0.00 | 0.00 | 69 | 1007.2 |
| 20260510034625 | 65 | 218 | 0.0 | 0.0 | 0.00 | 0.00 | 0.00 | 68 | 1007.2 |
| 20260510034121 | 64 | 209 | 0.9 | 0.9 | 0.00 | 0.00 | 0.00 | 67 | 1007.0 |
| 20260510033618 | 64 | 206 | 0.9 | 1.7 | 0.00 | 0.00 | 0.00 | 70 | 1007.2 |
| 20260510033116 | 62 | 197 | 0.9 | 0.9 | 0.00 | 0.00 | 0.00 | 76 | 1007.2 |
| 20260510032612 | 60 | 198 | 0.0 | 0.9 | 0.00 | 0.00 | 0.00 | 81 | 1007.0 |
| 20260510032107 | 60 | 188 | 0.9 | 0.9 | 0.00 | 0.00 | 0.00 | 83 | 1007.3 |
| 20260510031602 | 59 | 192 | 0.0 | 0.0 | 0.00 | 0.00 | 0.00 | 87 | 1007.2 |
| 20260510031058 | 59 | 200 | 0.0 | 0.0 | 0.00 | 0.00 | 0.00 | 88 | 1007.2 |
| 20260510030548 | 59 | 201 | 0.0 | 0.0 | 0.00 | 0.00 | 0.00 | 89 | 1006.9 |
| 20260510030046 | 60 | 201 | 0.0 | 0.0 | 0.00 | 0.00 | 0.00 | 90 | 1006.8 |
| 20260510025543 | 60 | 201 | 0.0 | 0.0 | 0.00 | 0.00 | 0.00 | 88 | 1006.9 |
| 20260510025040 | 59 | 201 | 0.0 | 0.0 | 0.00 | 0.00 | 0.00 | 85 | 1006.8 |
| 20260510024537 | 60 | 201 | 0.0 | 0.0 | 0.00 | 0.00 | 0.00 | 86 | 1006.8 |
| 20260510024033 | 60 | 202 | 0.0 | 0.0 | 0.00 | 0.00 | 0.00 | 86 | 1006.7 |
| 20260510023529 | 60 | 201 | 0.0 | 0.9 | 0.00 | 0.00 | 0.00 | 86 | 1006.7 |
| 20260510023026 | 61 | 190 | 0.0 | 0.9 | 0.00 | 0.00 | 0.00 | 88 | 1006.7 |
| 20260510022525 | 60 | 189 | 0.0 | 0.0 | 0.00 | 0.00 | 0.00 | 84 | 1006.5 |
| 20260510022020 | 61 | 189 | 0.0 | 0.0 | 0.00 | 0.00 | 0.00 | 85 | 1006.4 |
| 20260510021517 | 61 | 188 | 0.0 | 0.9 | 0.00 | 0.00 | 0.00 | 82 | 1006.5 |
| 20260510021015 | 60 | 153 | 0.9 | 0.9 | 0.00 | 0.00 | 0.00 | 82 | 1006.5 |
| 20260510020509 | 61 | 183 | 0.9 | 0.9 | 0.00 | 0.00 | 0.00 | 83 | 1006.5 |
| 20260510020005 | 62 | 220 | 0.0 | 0.0 | 0.00 | 0.00 | 0.00 | 85 | 1006.4 |
| 20260510015500 | 62 | 221 | 0.0 | 0.9 | 0.00 | 0.00 | 0.00 | 86 | 1006.4 |
| 20260510014956 | 62 | 220 | 0.0 | 0.0 | 0.00 | 0.00 | 0.00 | 83 | 1006.1 |
| 20260510014454 | 63 | 220 | 0.0 | 0.9 | 0.00 | 0.00 | 0.00 | 84 | 1006.0 |
| 20260510013950 | 63 | 237 | 0.0 | 0.0 | 0.00 | 0.00 | 0.00 | 83 | 1006.2 |
| 20260510013445 | 64 | 238 | 0.0 | 0.0 | 0.00 | 0.00 | 0.00 | 82 | 1006.1 |
| 20260510012940 | 64 | 211 | 0.9 | 0.9 | 0.00 | 0.00 | 0.00 | 82 | 1006.1 |
| 20260510012430 | 64 | 207 | 0.9 | 0.9 | 0.00 | 0.00 | 0.00 | 83 | 1006.0 |
| 20260510011925 | 65 | 182 | 0.0 | 0.0 | 0.00 | 0.00 | 0.00 | 82 | 1005.9 |
| 20260510011420 | 65 | 181 | 0.0 | 0.9 | 0.00 | 0.00 | 0.00 | 76 | 1005.8 |
| 20260510010916 | 66 | 187 | 0.0 | 0.0 | 0.00 | 0.00 | 0.00 | 78 | 1005.6 |
| 20260510010414 | 67 | 189 | 0.0 | 0.0 | 0.00 | 0.00 | 0.00 | 76 | 1005.6 |
| 20260510005910 | 67 | 189 | 0.0 | 0.0 | 0.00 | 0.00 | 0.00 | 78 | 1005.7 |
| 20260510005406 | 68 | 188 | 0.0 | 0.9 | 0.00 | 0.00 | 0.00 | 77 | 1005.5 |
| 20260510004904 | 68 | 188 | 0.0 | 0.0 | 0.00 | 0.00 | 0.00 | 72 | 1005.5 |
| 20260510004402 | 70 | 187 | 0.0 | 0.9 | 0.00 | 0.00 | 0.00 | 74 | 1005.6 |
| 20260510003859 | 71 | 207 | 0.0 | 0.9 | 0.00 | 0.00 | 0.00 | 73 | 1005.4 |
| 20260510003356 | 71 | 205 | 0.9 | 0.9 | 0.00 | 0.00 | 0.00 | 74 | 1005.5 |
| 20260510002855 | 73 | 208 | 0.9 | 0.9 | 0.00 | 0.00 | 0.00 | 70 | 1005.5 |
| 20260510002353 | 74 | 199 | 0.9 | 0.9 | 0.00 | 0.00 | 0.00 | 70 | 1005.3 |
| 20260510001849 | 75 | 208 | 0.0 | 0.9 | 0.00 | 0.00 | 0.00 | 67 | 1005.4 |
| 20260510001347 | 76 | 212 | 0.9 | 0.9 | 0.00 | 0.00 | 0.00 | 64 | 1005.3 |
| 20260510000843 | 77 | 209 | 0.9 | 0.9 | 0.00 | 0.00 | 0.00 | 63 | 1005.2 |
| 20260510000341 | 78 | 211 | 0.9 | 0.9 | 0.00 | 0.00 | 0.00 | 50 | 1005.2 |
| 20260509235836 | 78 | 212 | 0.9 | 0.9 | 0.00 | 0.00 | 0.00 | 51 | 1005.1 |
| 20260509235333 | 78 | 207 | 0.9 | 0.9 | 0.00 | 0.00 | 0.00 | 44 | 1005.1 |
| 20260509234829 | 79 | 207 | 1.7 | 1.7 | 0.00 | 0.00 | 0.00 | 42 | 1005.1 |
| 20260509234326 | 79 | 208 | 0.9 | 1.7 | 0.00 | 0.00 | 0.00 | 39 | 1005.1 |
| 20260509233824 | 79 | 208 | 0.9 | 0.9 | 0.00 | 0.00 | 0.00 | 42 | 1005.0 |
| 20260509233321 | 79 | 220 | 0.9 | 0.9 | 0.00 | 0.00 | 0.00 | 41 | 1005.1 |
| 20260509232817 | 80 | 203 | 2.6 | 2.6 | 0.00 | 0.00 | 0.00 | 37 | 1005.0 |
| 20260509232315 | 80 | 208 | 0.9 | 1.7 | 0.00 | 0.00 | 0.00 | 41 | 1004.9 |
| 20260509231811 | 80 | 212 | 1.7 | 1.7 | 0.00 | 0.00 | 0.00 | 38 | 1004.9 |
| 20260509231308 | 80 | 210 | 0.9 | 1.7 | 0.00 | 0.00 | 0.00 | 40 | 1005.1 |
| 20260509230806 | 80 | 197 | 1.7 | 2.6 | 0.00 | 0.00 | 0.00 | 37 | 1004.9 |
| 20260509230302 | 80 | 224 | 0.9 | 0.9 | 0.00 | 0.00 | 0.00 | 41 | 1005.0 |
| 20260509225757 | 81 | 183 | 1.7 | 2.6 | 0.00 | 0.00 | 0.00 | 40 | 1005.0 |
| 20260509225254 | 80 | 205 | 2.6 | 2.6 | 0.00 | 0.00 | 0.00 | 44 | 1005.0 |
| 20260509224750 | 81 | 214 | 1.7 | 1.7 | 0.00 | 0.00 | 0.00 | 38 | 1004.6 |
| 20260509224247 | 80 | 207 | 2.6 | 2.6 | 0.00 | 0.00 | 0.00 | 42 | 1004.9 |
| 20260509223744 | 80 | 210 | 1.7 | 1.7 | 0.00 | 0.00 | 0.00 | 41 | 1005.0 |
| 20260509223241 | 80 | 151 | 2.6 | 2.6 | 0.00 | 0.00 | 0.00 | 39 | 1005.1 |
| 20260509222738 | 80 | 217 | 0.0 | 0.0 | 0.00 | 0.00 | 0.00 | 38 | 1005.0 |
| 20260509222233 | 80 | 191 | 2.6 | 3.5 | 0.00 | 0.00 | 0.00 | 42 | 1005.2 |
| 20260509221728 | 81 | 207 | 5.2 | 5.2 | 0.00 | 0.00 | 0.00 | 40 | 1004.9 |
| 20260509221224 | 81 | 231 | 0.9 | 0.9 | 0.00 | 0.00 | 0.00 | 42 | 1005.0 |
| 20260509220720 | 81 | 216 | 3.5 | 3.5 | 0.00 | 0.00 | 0.00 | 40 | 1005.0 |
| 20260509220218 | 81 | 197 | 1.7 | 2.6 | 0.00 | 0.00 | 0.00 | 42 | 1005.0 |
| 20260509215714 | 82 | 209 | 1.7 | 1.7 | 0.00 | 0.00 | 0.00 | 42 | 1005.1 |
| 20260509215210 | 80 | 182 | 0.9 | 0.9 | 0.00 | 0.00 | 0.00 | 44 | 1005.0 |
| 20260509214707 | 80 | 167 | 2.6 | 2.6 | 0.00 | 0.00 | 0.00 | 43 | 1004.9 |
| 20260509214205 | 80 | 205 | 2.6 | 2.6 | 0.00 | 0.00 | 0.00 | 42 | 1004.5 |
| 20260509213702 | 81 | 185 | 1.7 | 2.6 | 0.00 | 0.00 | 0.00 | 44 | 1004.9 |
| 20260509213157 | 82 | 230 | 2.6 | 5.2 | 0.00 | 0.00 | 0.00 | 40 | 1004.9 |
| 20260509212655 | 82 | 280 | 2.6 | 3.5 | 0.00 | 0.00 | 0.00 | 40 | 1004.9 |
| 20260509212151 | 81 | 322 | 1.7 | 1.7 | 0.00 | 0.00 | 0.00 | 42 | 1004.8 |
| 20260509211647 | 81 | 48 | 1.7 | 1.7 | 0.00 | 0.00 | 0.00 | 45 | 1004.7 |
| 20260509211144 | 81 | 317 | 1.7 | 2.6 | 0.00 | 0.00 | 0.00 | 42 | 1004.8 |
| 20260509210640 | 81 | 342 | 2.6 | 3.5 | 0.00 | 0.00 | 0.00 | 45 | 1004.8 |
| 20260509210132 | 80 | 183 | 0.9 | 0.9 | 0.00 | 0.00 | 0.00 | 45 | 1004.7 |
| 20260509205626 | 81 | 226 | 3.5 | 5.2 | 0.00 | 0.00 | 0.00 | 43 | 1004.8 |
| 20260509205121 | 81 | 335 | 1.7 | 1.7 | 0.00 | 0.00 | 0.00 | 44 | 1004.8 |
| 20260509204618 | 82 | 343 | 3.5 | 5.2 | 0.00 | 0.00 | 0.00 | 43 | 1004.8 |
| 20260509204114 | 82 | 287 | 1.7 | 2.6 | 0.00 | 0.00 | 0.00 | 45 | 1004.7 |
| 20260509203610 | 80 | 252 | 1.7 | 1.7 | 0.00 | 0.00 | 0.00 | 44 | 1004.9 |
| 20260509203108 | 80 | 218 | 1.7 | 2.6 | 0.00 | 0.00 | 0.00 | 44 | 1004.9 |
| 20260509202602 | 81 | 191 | 5.2 | 6.1 | 0.00 | 0.00 | 0.00 | 46 | 1004.6 |
| 20260509202058 | 81 | 199 | 0.9 | 0.9 | 0.00 | 0.00 | 0.00 | 45 | 1004.9 |
| 20260509201553 | 82 | 277 | 3.5 | 3.5 | 0.00 | 0.00 | 0.00 | 44 | 1005.0 |
| 20260509201051 | 81 | 190 | 0.9 | 0.9 | 0.00 | 0.00 | 0.00 | 52 | 1005.0 |
| 20260509200550 | 80 | 140 | 1.7 | 2.6 | 0.00 | 0.00 | 0.00 | 45 | 1005.2 |
| 20260509200047 | 81 | 168 | 2.6 | 2.6 | 0.00 | 0.00 | 0.00 | 50 | 1005.3 |
| 20260509195543 | 80 | 186 | 2.6 | 2.6 | 0.00 | 0.00 | 0.00 | 52 | 1004.9 |
| 20260509195038 | 80 | 194 | 1.7 | 1.7 | 0.00 | 0.00 | 0.00 | 52 | 1005.1 |
| 20260509194533 | 79 | 205 | 1.7 | 1.7 | 0.00 | 0.00 | 0.00 | 50 | 1005.3 |
| 20260509194030 | 80 | 173 | 6.1 | 7.0 | 0.00 | 0.00 | 0.00 | 53 | 1005.4 |
| 20260509193525 | 82 | 222 | 1.7 | 1.7 | 0.00 | 0.00 | 0.00 | 50 | 1005.4 |
| 20260509193022 | 81 | 280 | 1.7 | 1.7 | 0.00 | 0.00 | 0.00 | 45 | 1005.6 |
| 20260509192519 | 80 | 259 | 0.0 | 0.0 | 0.00 | 0.00 | 0.00 | 50 | 1005.7 |
| 20260509192013 | 79 | 83 | 1.7 | 2.6 | 0.00 | 0.00 | 0.00 | 47 | 1005.5 |
| 20260509191508 | 80 | 177 | 1.7 | 1.7 | 0.00 | 0.00 | 0.00 | 51 | 1005.5 |
| 20260509191004 | 79 | 264 | 2.6 | 2.6 | 0.00 | 0.00 | 0.00 | 50 | 1005.7 |